#timestamp,LO_Frequency,Hit 
1499670015.4,286047030.8,N
1499670035.2,286047031.4,N
1499670055.0,286047031.3,N
1499670055.9,286047031.3,N
1499670075.8,286047031.3,N
1499670095.6,286047033.1,N
1499670115.4,286047030.7,N
1499670135.3,286047030.8,N
1499670155.1,286047031.1,N
1499670156.0,286047031.1,N
1499670175.8,286047029.2,N
1499670195.7,286047029.6,N
1499670215.5,286047029.0,N
1499670235.3,286047031.6,N
1499670255.2,286047029.2,N
1499670275.9,286047029.2,N
1499670295.7,286047029.7,N
1499670315.5,286047029.1,N
1499670335.4,286047029.8,N
1499670355.2,286047028.2,N
1499670375.0,286047029.9,N
1499670375.9,286047029.9,N
1499670395.8,286047028.8,N
1499670415.6,286047029.1,N
1499670435.4,286047028.6,N
1499670455.3,286047029.3,N
1499670475.1,286047029.8,N
1499670495.8,286047029.1,N
1499670515.7,286047027.5,N
1499670535.5,286047027.1,N
1499670555.3,286047027.5,N
1499670575.2,286047027.3,N
1499670595.9,286047028.1,N
1499670615.7,286047026.1,N
1499670635.6,286047025.3,N
1499670655.4,286047025.3,N
1499670675.2,286047025.4,N
1499670695.0,286047025.5,N
1499670696.0,286047025.5,N
1499670715.8,286047026.1,N
1499670735.6,286047027.6,N
1499670755.4,286047028.0,N
1499670775.5,286047027.5,N
1499670795.3,286047027.9,N
1499670815.1,286047028.0,N
1499670835.9,286047027.5,N
1499670855.7,286047027.8,N
1499670875.5,286047026.6,N
1499670895.4,286047026.0,N
1499670915.2,286047025.6,N
1499670935.0,286047025.5,N
1499670935.9,286047025.5,N
1499670955.8,286047025.9,N
1499670975.6,286047025.8,N
1499670995.4,286047027.7,N
1499671015.3,286047026.1,N
1499671035.1,286047023.9,N
1499671036.0,286047023.9,N
1499671055.8,286047024.6,N
1499671075.6,286047026.5,N
1499671095.5,286047028.2,N
1499671115.3,286047027.8,N
1499671135.1,286047027.6,N
1499671155.9,286047029.6,N
1499671175.7,286047028.4,N
1499671195.5,286047026.2,N
1499671215.4,286047026.5,N
1499671235.2,286047027.9,N
1499671255.0,286047028.2,N
1499671255.9,286047028.2,N
1499671275.8,286047026.3,N
1499671295.6,286047024.4,N
1499671315.4,286047024.0,N
1499671335.3,286047024.1,N
1499671355.1,286047026.0,N
1499671356.0,286047026.0,N
1499671375.8,286047027.4,N
1499671395.7,286047027.8,N
1499671415.5,286047026.2,N
1499671435.3,286047026.5,N
1499671455.1,286047025.0,N
1499671475.9,286047024.2,N
1499671495.7,286047026.7,N
1499671515.5,286047026.3,N
1499671535.4,286047026.7,N
1499671555.2,286047026.6,N
1499671575.0,286047023.7,N
1499671575.9,286047023.7,N
1499671595.8,286047026.5,N
1499671615.6,286047027.7,N
1499671635.4,286047027.3,N
1499671655.3,286047026.6,N
1499671675.1,286047026.0,N
1499671695.8,286047025.6,N
1499671715.7,286047025.6,N
1499671735.5,286047028.0,N
1499671755.3,286047028.4,N
1499671775.2,286047025.9,N
1499671795.9,286047026.6,N
1499671815.7,286047023.7,N
1499671835.6,286047026.5,N
1499671855.4,286047023.7,N
1499671875.2,286047024.4,N
1499671895.0,286047024.4,N
1499671896.0,286047024.4,N
1499671915.8,286047026.7,N
1499671935.6,286047026.3,N
1499671955.4,286047024.2,N
1499671975.3,286047026.3,N
1499671995.1,286047026.3,N
1499672015.8,286047026.7,N
1499672035.7,286047028.3,N
1499672055.5,286047024.6,N
1499672075.3,286047024.5,N
1499672095.2,286047024.4,N
1499672115.9,286047022.9,N
1499672135.7,286047023.2,N
1499672155.6,286047024.7,N
1499672175.4,286047024.4,N
1499672195.2,286047025.0,N
1499672215.1,286047025.1,N
1499672216.0,286047025.1,N
1499672235.8,286047022.9,N
1499672255.6,286047021.1,N
1499672275.5,286047025.1,N
1499672295.3,286047022.6,N
1499672315.1,286047021.1,N
1499672335.9,286047022.9,N
1499672355.7,286047024.2,N
1499672375.5,286047024.3,N
1499672395.3,286047024.8,N
1499672415.2,286047020.5,N
1499672435.0,286047020.5,N
1499672435.9,286047020.5,N
1499672455.7,286047022.4,N
1499672475.6,286047023.6,N
1499672495.4,286047020.5,N
1499672515.2,286047019.6,N
1499672535.1,286047020.1,N
1499672536.0,286047020.1,N
1499672555.8,286047021.3,N
1499672575.6,286047020.6,N
1499672595.5,286047021.2,N
1499672615.3,286047020.8,N
1499672635.1,286047021.2,N
1499672655.9,286047021.4,N
1499672675.7,286047020.9,N
1499672695.5,286047023.6,N
1499672715.3,286047022.0,N
1499672735.2,286047021.5,N
1499672755.0,286047020.6,N
1499672755.9,286047020.6,N
1499672775.7,286047020.8,N
1499672795.6,286047019.7,N
1499672815.4,286047020.3,N
1499672835.2,286047020.2,N
1499672855.1,286047018.8,N
1499672856.0,286047018.8,N
1499672875.8,286047016.1,N
1499672895.6,286047018.4,N
1499672915.5,286047017.6,N
1499672935.3,286047017.3,N
1499672955.1,286047020.3,N
1499672975.9,286047019.9,N
1499672995.7,286047017.3,N
1499673015.5,286047019.3,N
1499673035.4,286047019.5,N
1499673055.2,286047021.5,N
1499673075.0,286047021.1,N
1499673075.9,286047021.1,N
1499673095.8,286047020.7,N
1499673115.6,286047020.9,N
1499673135.4,286047021.1,N
1499673155.2,286047020.9,N
1499673175.1,286047019.7,N
1499673176.0,286047019.7,N
1499673195.8,286047022.0,N
1499673215.6,286047020.4,N
1499673235.5,286047015.7,N
1499673255.3,286047018.4,N
1499673275.1,286047018.5,N
1499673295.9,286047020.2,N
1499673315.7,286047022.0,N
1499673335.5,286047020.2,N
1499673355.4,286047020.3,N
1499673375.2,286047019.6,N
1499673395.0,286047019.6,N
1499673395.9,286047019.6,N
1499673415.8,286047020.2,N
1499673435.6,286047021.9,N
1499673455.4,286047025.1,N
1499673475.3,286047023.4,N
1499673495.1,286047018.9,N
1499673496.0,286047018.9,N
1499673515.8,286047021.9,N
1499673535.7,286047021.6,N
1499673555.5,286047020.2,N
1499673575.3,286047017.5,N
1499673595.1,286047019.6,N
